Wetterdaten: Montag, 03.07.2017
Datum Zeit Temp. Auen Feucht Auen Luftdruck Regen Richtung Richtung Windben
03.07.2017 00:00 14,1 C 92 % 1020,9 hPa 0,0 mm W 271 6,4 km/h (2 Bft)
03.07.2017 00:05 14,1 C 93 % 1020,8 hPa 0,0 mm W 271 4,8 km/h (1 Bft)
03.07.2017 00:10 14,1 C 93 % 1021,0 hPa 0,2 mm W 271 3,2 km/h (1 Bft)
03.07.2017 00:15 14,1 C 93 % 1021,0 hPa 0,0 mm W 271 4,8 km/h (1 Bft)
03.07.2017 00:20 14,1 C 93 % 1021,0 hPa 0,0 mm W 271 4,8 km/h (1 Bft)
03.07.2017 00:25 14,1 C 93 % 1021,0 hPa 0,0 mm W 271 6,4 km/h (2 Bft)
03.07.2017 00:30 14,1 C 93 % 1021,0 hPa 0,0 mm W 262 8,0 km/h (2 Bft)
03.07.2017 00:35 14,0 C 93 % 1021,0 hPa 0,0 mm W 259 4,8 km/h (1 Bft)
03.07.2017 00:40 14,1 C 93 % 1021,1 hPa 0,0 mm W-SW 247 4,8 km/h (1 Bft)
03.07.2017 00:45 14,1 C 93 % 1021,1 hPa 0,0 mm W-SW 244 6,4 km/h (2 Bft)
03.07.2017 00:50 14,1 C 93 % 1021,2 hPa 0,0 mm W-SW 250 6,4 km/h (2 Bft)
03.07.2017 00:55 14,1 C 93 % 1021,2 hPa 0,0 mm W 263 6,4 km/h (2 Bft)
03.07.2017 01:00 14,2 C 93 % 1021,2 hPa 0,4 mm W 274 9,7 km/h (2 Bft)
03.07.2017 01:05 14,1 C 93 % 1021,2 hPa 0,4 mm W 264 14,5 km/h (3 Bft)
03.07.2017 01:10 14,1 C 93 % 1021,3 hPa 0,0 mm W 267 9,7 km/h (2 Bft)
03.07.2017 01:15 14,1 C 93 % 1021,3 hPa 0,2 mm W 263 11,3 km/h (2 Bft)
03.07.2017 01:20 14,0 C 93 % 1021,3 hPa 0,0 mm W-NW 293 12,9 km/h (3 Bft)
03.07.2017 01:25 13,9 C 93 % 1021,3 hPa 0,0 mm W 273 14,5 km/h (3 Bft)
03.07.2017 01:30 13,8 C 93 % 1021,4 hPa 0,2 mm W 273 9,7 km/h (2 Bft)
03.07.2017 01:35 13,8 C 93 % 1021,4 hPa 0,0 mm W-SW 257 14,5 km/h (3 Bft)
03.07.2017 01:40 13,7 C 93 % 1021,5 hPa 0,0 mm W 269 16,1 km/h (3 Bft)
03.07.2017 01:45 13,7 C 93 % 1021,5 hPa 0,0 mm W 269 11,3 km/h (2 Bft)
03.07.2017 01:50 13,6 C 93 % 1021,4 hPa 0,0 mm W-SW 250 12,9 km/h (3 Bft)
03.07.2017 01:55 13,5 C 93 % 1021,6 hPa 0,2 mm W 272 11,3 km/h (2 Bft)
03.07.2017 02:00 13,4 C 93 % 1021,6 hPa 0,0 mm W 261 11,3 km/h (2 Bft)
03.07.2017 02:05 13,4 C 93 % 1021,6 hPa 0,0 mm W-SW 253 8,0 km/h (2 Bft)
03.07.2017 02:10 13,4 C 93 % 1021,6 hPa 0,0 mm W 273 9,7 km/h (2 Bft)
03.07.2017 02:15 13,4 C 93 % 1021,6 hPa 0,0 mm W-SW 257 8,0 km/h (2 Bft)
03.07.2017 02:20 13,5 C 93 % 1021,7 hPa 0,0 mm W 265 6,4 km/h (2 Bft)
03.07.2017 02:25 13,5 C 93 % 1021,7 hPa 0,0 mm W-NW 288 8,0 km/h (2 Bft)
03.07.2017 02:30 13,4 C 93 % 1021,8 hPa 0,0 mm W 269 9,7 km/h (2 Bft)
03.07.2017 02:35 13,4 C 93 % 1021,8 hPa 0,0 mm W 266 4,8 km/h (1 Bft)
03.07.2017 02:40 13,4 C 93 % 1021,8 hPa 0,2 mm W 268 6,4 km/h (2 Bft)
03.07.2017 02:45 13,4 C 93 % 1021,8 hPa 0,0 mm W 267 6,4 km/h (2 Bft)
03.07.2017 02:50 13,4 C 93 % 1021,8 hPa 0,0 mm W 266 8,0 km/h (2 Bft)
03.07.2017 02:55 13,4 C 93 % 1021,8 hPa 0,0 mm W 265 4,8 km/h (1 Bft)
03.07.2017 03:00 13,4 C 93 % 1021,8 hPa 0,0 mm W 265 4,8 km/h (1 Bft)
03.07.2017 03:05 13,4 C 93 % 1021,8 hPa 0,0 mm W-SW 252 4,8 km/h (1 Bft)
03.07.2017 03:10 13,4 C 93 % 1021,8 hPa 0,2 mm W-SW 252 3,2 km/h (1 Bft)
03.07.2017 03:15 13,4 C 93 % 1021,8 hPa 0,0 mm W-SW 252 4,8 km/h (1 Bft)
03.07.2017 03:20 13,4 C 93 % 1021,7 hPa 0,0 mm W 277 4,8 km/h (1 Bft)
03.07.2017 03:25 13,4 C 93 % 1021,7 hPa 0,0 mm W 277 4,8 km/h (1 Bft)
03.07.2017 03:30 13,4 C 93 % 1021,8 hPa 0,0 mm W 277 3,2 km/h (1 Bft)
03.07.2017 03:35 13,3 C 93 % 1021,7 hPa 0,0 mm W 275 4,8 km/h (1 Bft)
03.07.2017 03:40 13,3 C 93 % 1021,7 hPa 0,0 mm W 275 4,8 km/h (1 Bft)
03.07.2017 03:45 13,3 C 93 % 1021,6 hPa 0,0 mm W 275 6,4 km/h (2 Bft)
03.07.2017 03:50 13,3 C 93 % 1021,7 hPa 0,0 mm W 271 6,4 km/h (2 Bft)
03.07.2017 03:55 13,3 C 93 % 1021,7 hPa 0,0 mm W 265 6,4 km/h (2 Bft)
03.07.2017 04:00 13,3 C 93 % 1021,7 hPa 0,2 mm W 272 9,7 km/h (2 Bft)
03.07.2017 04:05 13,3 C 93 % 1021,6 hPa 0,0 mm W 270 6,4 km/h (2 Bft)
03.07.2017 04:10 13,3 C 93 % 1021,6 hPa 0,0 mm W-NW 283 9,7 km/h (2 Bft)
03.07.2017 04:15 13,4 C 93 % 1021,5 hPa 0,0 mm W 261 9,7 km/h (2 Bft)
03.07.2017 04:20 13,4 C 93 % 1021,5 hPa 0,2 mm W 271 12,9 km/h (3 Bft)
03.07.2017 04:25 13,4 C 93 % 1021,5 hPa 0,0 mm W 265 8,0 km/h (2 Bft)
03.07.2017 04:30 13,3 C 93 % 1021,5 hPa 0,0 mm W 268 14,5 km/h (3 Bft)
03.07.2017 04:35 13,3 C 93 % 1021,4 hPa 0,0 mm W 281 11,3 km/h (2 Bft)
03.07.2017 04:40 13,3 C 93 % 1021,3 hPa 0,0 mm W 266 11,3 km/h (2 Bft)
03.07.2017 04:45 13,3 C 93 % 1021,4 hPa 0,0 mm W 268 12,9 km/h (3 Bft)
03.07.2017 04:50 13,3 C 93 % 1021,4 hPa 0,0 mm W-NW 284 9,7 km/h (2 Bft)
03.07.2017 04:55 13,4 C 93 % 1021,4 hPa 0,2 mm W 279 11,3 km/h (2 Bft)
03.07.2017 05:00 13,4 C 93 % 1021,4 hPa 0,0 mm W 267 8,0 km/h (2 Bft)
03.07.2017 05:05 13,4 C 93 % 1021,6 hPa 0,0 mm W 271 11,3 km/h (2 Bft)
03.07.2017 05:10 13,3 C 93 % 1021,7 hPa 0,2 mm W 270 9,7 km/h (2 Bft)
03.07.2017 05:15 13,4 C 93 % 1021,8 hPa 0,4 mm W 265 8,0 km/h (2 Bft)
03.07.2017 05:20 13,3 C 93 % 1021,9 hPa 0,6 mm W 265 6,4 km/h (2 Bft)
03.07.2017 05:25 13,3 C 93 % 1021,9 hPa 0,6 mm W-SW 257 9,7 km/h (2 Bft)
03.07.2017 05:30 13,3 C 93 % 1021,8 hPa 0,4 mm W 259 9,7 km/h (2 Bft)
03.07.2017 05:35 13,2 C 93 % 1021,8 hPa 0,2 mm W 266 8,0 km/h (2 Bft)
03.07.2017 05:40 13,2 C 93 % 1021,8 hPa 0,2 mm W-SW 248 9,7 km/h (2 Bft)
03.07.2017 05:45 13,2 C 93 % 1021,9 hPa 0,0 mm W-SW 252 6,4 km/h (2 Bft)
03.07.2017 05:50 13,2 C 93 % 1021,9 hPa 0,2 mm W-SW 252 4,8 km/h (1 Bft)
03.07.2017 05:55 13,2 C 93 % 1021,9 hPa 0,0 mm W 267 6,4 km/h (2 Bft)
03.07.2017 06:00 13,2 C 93 % 1021,9 hPa 0,0 mm W 267 4,8 km/h (1 Bft)
03.07.2017 06:05 13,2 C 93 % 1022,0 hPa 0,0 mm W 263 6,4 km/h (2 Bft)
03.07.2017 06:10 13,2 C 93 % 1021,9 hPa 0,2 mm W 267 6,4 km/h (2 Bft)
03.07.2017 06:15 13,2 C 93 % 1021,9 hPa 0,0 mm W 265 6,4 km/h (2 Bft)
03.07.2017 06:20 13,2 C 93 % 1021,9 hPa 0,2 mm W 275 8,0 km/h (2 Bft)
03.07.2017 06:25 13,2 C 93 % 1021,9 hPa 0,4 mm W 259 9,7 km/h (2 Bft)
03.07.2017 06:30 13,2 C 93 % 1022,0 hPa 0,0 mm W 264 8,0 km/h (2 Bft)
03.07.2017 06:35 13,2 C 93 % 1022,0 hPa 0,0 mm W 261 8,0 km/h (2 Bft)
03.07.2017 06:40 13,2 C 93 % 1022,0 hPa 0,2 mm W 261 4,8 km/h (1 Bft)
03.07.2017 06:45 13,2 C 93 % 1022,0 hPa 0,0 mm W 263 4,8 km/h (1 Bft)
03.07.2017 06:50 13,3 C 93 % 1022,0 hPa 0,0 mm W 263 3,2 km/h (1 Bft)
03.07.2017 06:55 13,3 C 93 % 1022,1 hPa 0,0 mm W 263 0,0 km/h (0 Bft)
03.07.2017 07:00 13,3 C 93 % 1022,1 hPa 0,0 mm W 273 4,8 km/h (1 Bft)
03.07.2017 07:05 13,3 C 93 % 1022,2 hPa 0,2 mm W 276 9,7 km/h (2 Bft)
03.07.2017 07:10 13,3 C 93 % 1022,2 hPa 0,0 mm W 268 8,0 km/h (2 Bft)
03.07.2017 07:15 13,3 C 93 % 1022,2 hPa 0,2 mm W-SW 254 6,4 km/h (2 Bft)
03.07.2017 07:20 13,3 C 93 % 1022,3 hPa 0,0 mm W-SW 255 4,8 km/h (1 Bft)
03.07.2017 07:25 13,3 C 93 % 1022,2 hPa 0,0 mm W-SW 255 6,4 km/h (2 Bft)
03.07.2017 07:30 13,4 C 93 % 1022,3 hPa 0,0 mm W-SW 256 6,4 km/h (2 Bft)
03.07.2017 07:35 13,4 C 93 % 1022,4 hPa 0,0 mm W-SW 255 4,8 km/h (1 Bft)
03.07.2017 07:40 13,4 C 93 % 1022,4 hPa 0,0 mm W-SW 256 4,8 km/h (1 Bft)
03.07.2017 07:45 13,4 C 93 % 1022,5 hPa 0,0 mm W-SW 257 6,4 km/h (2 Bft)
03.07.2017 07:50 13,4 C 93 % 1022,5 hPa 0,0 mm W-SW 252 6,4 km/h (2 Bft)
03.07.2017 07:55 13,4 C 93 % 1022,5 hPa 0,0 mm W 262 8,0 km/h (2 Bft)
03.07.2017 08:00 13,5 C 93 % 1022,5 hPa 0,0 mm W 270 8,0 km/h (2 Bft)
03.07.2017 08:05 13,6 C 93 % 1022,6 hPa 0,0 mm W 270 4,8 km/h (1 Bft)
03.07.2017 08:10 13,6 C 93 % 1022,7 hPa 0,2 mm W-SW 257 6,4 km/h (2 Bft)
03.07.2017 08:15 13,7 C 93 % 1022,8 hPa 0,0 mm W 274 8,0 km/h (2 Bft)
03.07.2017 08:20 13,7 C 93 % 1022,8 hPa 0,2 mm W-SW 250 9,7 km/h (2 Bft)
03.07.2017 08:25 13,7 C 93 % 1022,8 hPa 0,2 mm W 266 9,7 km/h (2 Bft)
03.07.2017 08:30 13,8 C 93 % 1022,8 hPa 0,0 mm W 273 6,4 km/h (2 Bft)
03.07.2017 08:35 13,9 C 93 % 1022,8 hPa 0,0 mm W-SW 255 9,7 km/h (2 Bft)
03.07.2017 08:40 14,0 C 93 % 1022,9 hPa 0,0 mm W 281 11,3 km/h (2 Bft)
03.07.2017 08:45 14,1 C 93 % 1022,9 hPa 0,0 mm W 279 6,4 km/h (2 Bft)
03.07.2017 08:50 14,1 C 93 % 1023,0 hPa 0,0 mm W 266 11,3 km/h (2 Bft)
03.07.2017 08:55 14,1 C 93 % 1022,9 hPa 0,0 mm W 272 8,0 km/h (2 Bft)
03.07.2017 09:00 14,1 C 93 % 1023,0 hPa 0,0 mm W 265 11,3 km/h (2 Bft)
03.07.2017 09:05 14,2 C 93 % 1023,0 hPa 0,0 mm W 264 9,7 km/h (2 Bft)
03.07.2017 09:10 14,2 C 93 % 1023,0 hPa 0,0 mm W-SW 246 8,0 km/h (2 Bft)
03.07.2017 09:15 14,2 C 93 % 1023,0 hPa 0,0 mm W 267 8,0 km/h (2 Bft)
03.07.2017 09:20 14,2 C 93 % 1023,1 hPa 0,0 mm W 265 4,8 km/h (1 Bft)
03.07.2017 09:25 14,3 C 93 % 1023,0 hPa 0,0 mm W 261 4,8 km/h (1 Bft)
03.07.2017 09:30 14,7 C 93 % 1023,1 hPa 0,0 mm W 274 9,7 km/h (2 Bft)
03.07.2017 09:35 14,6 C 93 % 1023,2 hPa 0,0 mm W 274 11,3 km/h (2 Bft)
03.07.2017 09:40 14,8 C 93 % 1023,2 hPa 0,0 mm W 280 9,7 km/h (2 Bft)
03.07.2017 09:45 14,8 C 93 % 1023,2 hPa 0,0 mm W 271 9,7 km/h (2 Bft)
03.07.2017 09:50 14,7 C 93 % 1023,2 hPa 0,0 mm W-NW 294 12,9 km/h (3 Bft)
03.07.2017 09:55 14,6 C 92 % 1023,2 hPa 0,0 mm W-SW 250 9,7 km/h (2 Bft)
03.07.2017 10:00 14,6 C 93 % 1023,3 hPa 0,0 mm SW 235 11,3 km/h (2 Bft)
03.07.2017 10:05 14,8 C 93 % 1023,3 hPa 0,0 mm W 277 12,9 km/h (3 Bft)
03.07.2017 10:10 15,3 C 93 % 1023,3 hPa 0,0 mm W 279 11,3 km/h (2 Bft)
03.07.2017 10:15 15,6 C 92 % 1023,3 hPa 0,2 mm W 265 11,3 km/h (2 Bft)
03.07.2017 10:20 15,4 C 92 % 1023,4 hPa 0,0 mm W 264 12,9 km/h (3 Bft)
03.07.2017 10:25 15,6 C 92 % 1023,5 hPa 0,0 mm W 275 6,4 km/h (2 Bft)
03.07.2017 10:30 15,5 C 91 % 1023,5 hPa 0,0 mm W 271 9,7 km/h (2 Bft)
03.07.2017 10:35 15,5 C 91 % 1023,5 hPa 0,0 mm W-NW 293 8,0 km/h (2 Bft)
03.07.2017 10:40 15,4 C 91 % 1023,6 hPa 0,0 mm W 275 8,0 km/h (2 Bft)
03.07.2017 10:45 15,5 C 91 % 1023,6 hPa 0,0 mm W 275 3,2 km/h (1 Bft)
03.07.2017 10:50 15,7 C 91 % 1023,6 hPa 0,0 mm W 259 9,7 km/h (2 Bft)
03.07.2017 10:55 15,7 C 91 % 1023,6 hPa 0,0 mm W-NW 292 6,4 km/h (2 Bft)
03.07.2017 11:00 15,8 C 90 % 1023,6 hPa 0,0 mm W-NW 286 11,3 km/h (2 Bft)
03.07.2017 11:05 16,1 C 90 % 1023,6 hPa 0,0 mm W 271 12,9 km/h (3 Bft)
03.07.2017 11:10 16,4 C 90 % 1023,6 hPa 0,0 mm W 277 8,0 km/h (2 Bft)
03.07.2017 11:15 16,6 C 89 % 1023,6 hPa 0,0 mm W 277 11,3 km/h (2 Bft)
03.07.2017 11:20 16,6 C 88 % 1023,6 hPa 0,0 mm W-SW 257 11,3 km/h (2 Bft)
03.07.2017 11:25 16,5 C 87 % 1023,6 hPa 0,0 mm W-SW 242 12,9 km/h (3 Bft)
03.07.2017 11:30 16,6 C 86 % 1023,5 hPa 0,0 mm W 261 11,3 km/h (2 Bft)
03.07.2017 11:35 16,7 C 87 % 1023,5 hPa 0,0 mm W-SW 255 8,0 km/h (2 Bft)
03.07.2017 11:40 16,8 C 86 % 1023,5 hPa 0,0 mm W 263 9,7 km/h (2 Bft)
03.07.2017 11:45 16,8 C 86 % 1023,5 hPa 0,0 mm W-NW 287 8,0 km/h (2 Bft)
03.07.2017 11:50 17,1 C 86 % 1023,4 hPa 0,0 mm W-SW 254 8,0 km/h (2 Bft)
03.07.2017 11:55 17,4 C 86 % 1023,5 hPa 0,0 mm W 275 6,4 km/h (2 Bft)
03.07.2017 12:00 17,7 C 85 % 1023,4 hPa 0,0 mm W 271 9,7 km/h (2 Bft)
03.07.2017 12:05 17,7 C 83 % 1023,5 hPa 0,0 mm W 268 8,0 km/h (2 Bft)
03.07.2017 12:10 18,1 C 85 % 1023,4 hPa 0,0 mm W-NW 282 8,0 km/h (2 Bft)
03.07.2017 12:15 17,9 C 83 % 1023,3 hPa 0,0 mm W-NW 291 12,9 km/h (3 Bft)
03.07.2017 12:20 17,7 C 82 % 1023,4 hPa 0,0 mm W 275 12,9 km/h (3 Bft)
03.07.2017 12:25 18,5 C 83 % 1023,2 hPa 0,0 mm W-NW 286 11,3 km/h (2 Bft)
03.07.2017 12:30 19,2 C 79 % 1023,3 hPa 0,0 mm W 265 11,3 km/h (2 Bft)
03.07.2017 12:35 19,6 C 78 % 1023,2 hPa 0,0 mm W 269 9,7 km/h (2 Bft)
03.07.2017 12:40 19,4 C 76 % 1023,2 hPa 0,0 mm W-SW 238 14,5 km/h (3 Bft)
03.07.2017 12:45 20,0 C 77 % 1023,1 hPa 0,0 mm W 265 14,5 km/h (3 Bft)
03.07.2017 12:50 20,0 C 75 % 1023,1 hPa 0,0 mm W-SW 257 11,3 km/h (2 Bft)
03.07.2017 12:55 20,1 C 71 % 1023,1 hPa 0,0 mm W 265 16,1 km/h (3 Bft)
03.07.2017 13:00 20,8 C 70 % 1023,0 hPa 0,0 mm W-SW 243 11,3 km/h (2 Bft)
03.07.2017 13:05 20,4 C 72 % 1023,0 hPa 0,0 mm W 271 11,3 km/h (2 Bft)
03.07.2017 13:10 20,2 C 71 % 1023,0 hPa 0,0 mm W-SW 250 12,9 km/h (3 Bft)
03.07.2017 13:15 20,3 C 73 % 1022,9 hPa 0,0 mm W-SW 254 11,3 km/h (2 Bft)
03.07.2017 13:20 20,9 C 74 % 1022,9 hPa 0,0 mm W 273 11,3 km/h (2 Bft)
03.07.2017 13:25 21,0 C 66 % 1022,8 hPa 0,0 mm W 281 14,5 km/h (3 Bft)
03.07.2017 13:30 20,3 C 69 % 1022,8 hPa 0,0 mm W 277 12,9 km/h (3 Bft)
03.07.2017 13:35 20,7 C 70 % 1022,8 hPa 0,0 mm W 261 12,9 km/h (3 Bft)
03.07.2017 13:40 21,6 C 71 % 1022,8 hPa 0,0 mm W 259 11,3 km/h (2 Bft)
03.07.2017 13:45 21,9 C 64 % 1022,8 hPa 0,0 mm W 280 12,9 km/h (3 Bft)
03.07.2017 13:50 21,9 C 65 % 1022,7 hPa 0,0 mm W-NW 284 12,9 km/h (3 Bft)
03.07.2017 13:55 21,5 C 64 % 1022,6 hPa 0,0 mm W 264 12,9 km/h (3 Bft)
03.07.2017 14:00 21,4 C 64 % 1022,6 hPa 0,0 mm W 265 11,3 km/h (2 Bft)
03.07.2017 14:05 21,7 C 64 % 1022,6 hPa 0,0 mm W 263 12,9 km/h (3 Bft)
03.07.2017 14:10 21,1 C 63 % 1022,5 hPa 0,0 mm W-SW 240 11,3 km/h (2 Bft)
03.07.2017 14:15 21,1 C 65 % 1022,4 hPa 0,0 mm W-SW 258 11,3 km/h (2 Bft)
03.07.2017 14:20 20,9 C 63 % 1022,4 hPa 0,0 mm W 265 11,3 km/h (2 Bft)
03.07.2017 14:25 20,6 C 64 % 1022,4 hPa 0,0 mm SW 227 12,9 km/h (3 Bft)
03.07.2017 14:30 20,7 C 66 % 1022,2 hPa 0,0 mm W-NW 294 9,7 km/h (2 Bft)
03.07.2017 14:35 20,8 C 66 % 1022,1 hPa 0,0 mm W-SW 250 12,9 km/h (3 Bft)
03.07.2017 14:40 20,4 C 66 % 1022,1 hPa 0,0 mm W 272 6,4 km/h (2 Bft)
03.07.2017 14:45 20,1 C 63 % 1022,1 hPa 0,0 mm SW 229 11,3 km/h (2 Bft)
03.07.2017 14:50 20,0 C 67 % 1022,2 hPa 0,0 mm SW 215 11,3 km/h (2 Bft)
03.07.2017 14:55 20,3 C 69 % 1022,1 hPa 0,0 mm SW 225 8,0 km/h (2 Bft)
03.07.2017 15:00 20,2 C 67 % 1022,1 hPa 0,0 mm W-SW 249 8,0 km/h (2 Bft)
03.07.2017 15:05 20,2 C 67 % 1022,1 hPa 0,0 mm W 261 12,9 km/h (3 Bft)
03.07.2017 15:10 20,0 C 68 % 1022,1 hPa 0,0 mm W 259 14,5 km/h (3 Bft)
03.07.2017 15:15 19,7 C 67 % 1022,0 hPa 0,0 mm W-SW 254 12,9 km/h (3 Bft)
03.07.2017 15:20 19,7 C 68 % 1022,0 hPa 0,0 mm W-SW 254 11,3 km/h (2 Bft)
03.07.2017 15:25 20,0 C 67 % 1022,1 hPa 0,0 mm W 266 9,7 km/h (2 Bft)
03.07.2017 15:30 20,1 C 66 % 1022,0 hPa 0,0 mm W-SW 241 12,9 km/h (3 Bft)
03.07.2017 15:35 20,2 C 67 % 1022,0 hPa 0,0 mm W-SW 243 16,1 km/h (3 Bft)
03.07.2017 15:40 20,8 C 68 % 1021,8 hPa 0,0 mm W 279 9,7 km/h (2 Bft)
03.07.2017 15:45 21,2 C 62 % 1021,8 hPa 0,0 mm W 259 14,5 km/h (3 Bft)
03.07.2017 15:50 20,7 C 64 % 1021,7 hPa 0,0 mm W-SW 255 12,9 km/h (3 Bft)
03.07.2017 15:55 20,6 C 64 % 1021,6 hPa 0,0 mm W-SW 242 14,5 km/h (3 Bft)
03.07.2017 16:00 20,3 C 66 % 1021,6 hPa 0,0 mm W 265 14,5 km/h (3 Bft)
03.07.2017 16:05 20,7 C 65 % 1021,6 hPa 0,0 mm W-SW 241 11,3 km/h (2 Bft)
03.07.2017 16:10 20,9 C 65 % 1021,5 hPa 0,0 mm W-SW 250 8,0 km/h (2 Bft)
03.07.2017 16:15 21,3 C 63 % 1021,5 hPa 0,0 mm W-SW 250 9,7 km/h (2 Bft)
03.07.2017 16:20 21,4 C 64 % 1021,5 hPa 0,0 mm W-SW 258 11,3 km/h (2 Bft)
03.07.2017 16:25 21,7 C 60 % 1021,5 hPa 0,0 mm W-NW 282 11,3 km/h (2 Bft)
03.07.2017 16:30 21,6 C 60 % 1021,4 hPa 0,0 mm W-SW 256 9,7 km/h (2 Bft)
03.07.2017 16:35 21,9 C 61 % 1021,4 hPa 0,0 mm W 275 8,0 km/h (2 Bft)
03.07.2017 16:40 21,7 C 61 % 1021,3 hPa 0,0 mm W 270 6,4 km/h (2 Bft)
03.07.2017 16:45 22,1 C 55 % 1021,2 hPa 0,0 mm W-SW 257 12,9 km/h (3 Bft)
03.07.2017 16:50 22,2 C 55 % 1021,2 hPa 0,0 mm W 270 11,3 km/h (2 Bft)
03.07.2017 16:55 22,1 C 58 % 1021,1 hPa 0,0 mm SW 221 11,3 km/h (2 Bft)
03.07.2017 17:00 21,7 C 56 % 1021,2 hPa 0,0 mm SW 231 11,3 km/h (2 Bft)
03.07.2017 17:05 21,7 C 55 % 1021,3 hPa 0,0 mm W 266 14,5 km/h (3 Bft)
03.07.2017 17:10 21,7 C 56 % 1021,2 hPa 0,0 mm NW 319 11,3 km/h (2 Bft)
03.07.2017 17:15 21,9 C 56 % 1021,2 hPa 0,0 mm W-SW 252 16,1 km/h (3 Bft)
03.07.2017 17:20 21,9 C 56 % 1021,2 hPa 0,0 mm W-SW 257 16,1 km/h (3 Bft)
03.07.2017 17:25 21,6 C 56 % 1021,1 hPa 0,0 mm W 261 11,3 km/h (2 Bft)
03.07.2017 17:30 21,7 C 58 % 1021,1 hPa 0,0 mm W-NW 288 9,7 km/h (2 Bft)
03.07.2017 17:35 21,7 C 58 % 1021,1 hPa 0,0 mm W-SW 248 16,1 km/h (3 Bft)
03.07.2017 17:40 21,8 C 58 % 1021,1 hPa 0,0 mm W-SW 254 14,5 km/h (3 Bft)
03.07.2017 17:45 21,8 C 59 % 1021,1 hPa 0,0 mm W-SW 253 9,7 km/h (2 Bft)
03.07.2017 17:50 21,5 C 59 % 1021,0 hPa 0,0 mm W-SW 251 8,0 km/h (2 Bft)
03.07.2017 17:55 21,7 C 57 % 1021,0 hPa 0,0 mm W-SW 247 14,5 km/h (3 Bft)
03.07.2017 18:00 21,6 C 56 % 1020,9 hPa 0,0 mm W-SW 250 11,3 km/h (2 Bft)
03.07.2017 18:05 21,6 C 58 % 1020,8 hPa 0,0 mm W 260 12,9 km/h (3 Bft)
03.07.2017 18:10 21,8 C 57 % 1020,8 hPa 0,0 mm W-SW 250 17,7 km/h (3 Bft)
03.07.2017 18:15 21,8 C 56 % 1020,8 hPa 0,0 mm W 280 12,9 km/h (3 Bft)
03.07.2017 18:20 21,6 C 56 % 1020,9 hPa 0,0 mm W-SW 255 14,5 km/h (3 Bft)
03.07.2017 18:25 21,1 C 58 % 1020,9 hPa 0,0 mm SW 236 9,7 km/h (2 Bft)
03.07.2017 18:30 20,7 C 62 % 1020,9 hPa 0,0 mm SW 236 3,2 km/h (1 Bft)
03.07.2017 18:35 20,7 C 61 % 1020,8 hPa 0,0 mm W 263 9,7 km/h (2 Bft)
03.07.2017 18:40 20,5 C 63 % 1020,8 hPa 0,0 mm W 270 8,0 km/h (2 Bft)
03.07.2017 18:45 20,5 C 64 % 1020,9 hPa 0,0 mm W 281 4,8 km/h (1 Bft)
03.07.2017 18:50 20,3 C 66 % 1020,7 hPa 0,0 mm W 281 0,0 km/h (0 Bft)
03.07.2017 18:55 20,2 C 65 % 1020,8 hPa 0,0 mm W-SW 258 3,2 km/h (1 Bft)
03.07.2017 19:00 20,2 C 64 % 1020,8 hPa 0,0 mm W-SW 256 6,4 km/h (2 Bft)
03.07.2017 19:05 20,1 C 65 % 1020,8 hPa 0,0 mm W-SW 256 3,2 km/h (1 Bft)
03.07.2017 19:10 20,2 C 64 % 1020,8 hPa 0,0 mm W-SW 250 4,8 km/h (1 Bft)
03.07.2017 19:15 20,2 C 65 % 1020,8 hPa 0,0 mm W-SW 250 4,8 km/h (1 Bft)
03.07.2017 19:20 20,1 C 66 % 1020,7 hPa 0,0 mm W-SW 250 3,2 km/h (1 Bft)
03.07.2017 19:25 19,8 C 67 % 1020,7 hPa 0,0 mm W-SW 250 1,6 km/h (1 Bft)
03.07.2017 19:30 19,7 C 67 % 1020,7 hPa 0,0 mm W-SW 250 1,6 km/h (1 Bft)
03.07.2017 19:35 19,5 C 69 % 1020,7 hPa 0,0 mm W-SW 250 1,6 km/h (1 Bft)
03.07.2017 19:40 19,3 C 70 % 1020,7 hPa 0,0 mm W-SW 238 3,2 km/h (1 Bft)
03.07.2017 19:45 19,2 C 71 % 1020,7 hPa 0,0 mm W-SW 238 3,2 km/h (1 Bft)
03.07.2017 19:50 19,2 C 72 % 1020,7 hPa 0,0 mm W-SW 238 3,2 km/h (1 Bft)
03.07.2017 19:55 19,2 C 72 % 1020,7 hPa 0,0 mm N 9 1,6 km/h (1 Bft)
03.07.2017 20:00 18,7 C 76 % 1020,7 hPa 0,0 mm N 9 1,6 km/h (1 Bft)
03.07.2017 20:05 18,2 C 78 % 1020,7 hPa 0,0 mm N 9 0,0 km/h (0 Bft)
03.07.2017 20:10 17,8 C 78 % 1020,7 hPa 0,0 mm N 9 0,0 km/h (0 Bft)
03.07.2017 20:15 17,4 C 80 % 1020,7 hPa 0,0 mm N 9 0,0 km/h (0 Bft)
03.07.2017 20:20 17,6 C 81 % 1020,7 hPa 0,0 mm N 9 0,0 km/h (0 Bft)
03.07.2017 20:25 17,3 C 81 % 1020,7 hPa 0,0 mm N 9 0,0 km/h (0 Bft)
03.07.2017 20:30 16,9 C 83 % 1020,7 hPa 0,0 mm N 9 0,0 km/h (0 Bft)
03.07.2017 20:35 16,7 C 84 % 1020,8 hPa 0,0 mm N 9 1,6 km/h (1 Bft)
03.07.2017 20:40 16,7 C 83 % 1020,9 hPa 0,0 mm N 9 0,0 km/h (0 Bft)
03.07.2017 20:45 16,2 C 84 % 1020,9 hPa 0,0 mm N 9 0,0 km/h (0 Bft)
03.07.2017 20:50 16,1 C 85 % 1021,0 hPa 0,0 mm N 9 0,0 km/h (0 Bft)
03.07.2017 20:55 15,7 C 85 % 1021,0 hPa 0,0 mm N 9 0,0 km/h (0 Bft)
03.07.2017 21:00 15,6 C 86 % 1021,0 hPa 0,0 mm N 9 0,0 km/h (0 Bft)
03.07.2017 21:05 15,4 C 86 % 1021,0 hPa 0,0 mm N 9 0,0 km/h (0 Bft)
03.07.2017 21:10 15,2 C 87 % 1021,1 hPa 0,0 mm N 9 0,0 km/h (0 Bft)
03.07.2017 21:15 15,0 C 87 % 1021,1 hPa 0,0 mm N 9 0,0 km/h (0 Bft)
03.07.2017 21:20 14,7 C 88 % 1021,2 hPa 0,0 mm N 9 0,0 km/h (0 Bft)
03.07.2017 21:25 14,5 C 89 % 1021,3 hPa 0,0 mm N 9 0,0 km/h (0 Bft)
03.07.2017 21:30 14,4 C 89 % 1021,3 hPa 0,0 mm N 9 0,0 km/h (0 Bft)
03.07.2017 21:35 14,2 C 89 % 1021,2 hPa 0,0 mm N 9 0,0 km/h (0 Bft)
03.07.2017 21:40 13,9 C 89 % 1021,3 hPa 0,0 mm N 9 0,0 km/h (0 Bft)
03.07.2017 21:45 13,9 C 90 % 1021,4 hPa 0,0 mm N 9 0,0 km/h (0 Bft)
03.07.2017 21:50 13,7 C 89 % 1021,4 hPa 0,0 mm N 9 0,0 km/h (0 Bft)
03.07.2017 21:55 13,6 C 90 % 1021,4 hPa 0,0 mm N 9 0,0 km/h (0 Bft)
03.07.2017 22:00 13,6 C 90 % 1021,5 hPa 0,0 mm N 9 0,0 km/h (0 Bft)
03.07.2017 22:05 13,4 C 90 % 1021,4 hPa 0,0 mm N 9 0,0 km/h (0 Bft)
03.07.2017 22:10 13,2 C 90 % 1021,3 hPa 0,0 mm N 9 0,0 km/h (0 Bft)
03.07.2017 22:15 13,2 C 90 % 1021,3 hPa 0,0 mm N 9 0,0 km/h (0 Bft)
03.07.2017 22:20 13,3 C 91 % 1021,4 hPa 0,0 mm N 9 0,0 km/h (0 Bft)
03.07.2017 22:25 13,2 C 90 % 1021,4 hPa 0,0 mm N 9 0,0 km/h (0 Bft)
03.07.2017 22:30 12,9 C 90 % 1021,4 hPa 0,0 mm N 9 3,2 km/h (1 Bft)
03.07.2017 22:35 12,9 C 91 % 1021,5 hPa 0,0 mm N 9 1,6 km/h (1 Bft)
03.07.2017 22:40 13,0 C 91 % 1021,5 hPa 0,0 mm N 9 3,2 km/h (1 Bft)
03.07.2017 22:45 12,8 C 91 % 1021,4 hPa 0,0 mm N 9 1,6 km/h (1 Bft)
03.07.2017 22:50 12,7 C 91 % 1021,4 hPa 0,0 mm N 9 0,0 km/h (0 Bft)
03.07.2017 22:55 12,7 C 91 % 1021,5 hPa 0,0 mm N 5 1,6 km/h (1 Bft)
03.07.2017 23:00 12,7 C 91 % 1021,5 hPa 0,0 mm N 5 1,6 km/h (1 Bft)
03.07.2017 23:05 12,6 C 91 % 1021,5 hPa 0,0 mm N 5 0,0 km/h (0 Bft)
03.07.2017 23:10 12,6 C 91 % 1021,5 hPa 0,0 mm N 5 1,6 km/h (1 Bft)
03.07.2017 23:15 12,5 C 91 % 1021,6 hPa 0,0 mm NW 312 3,2 km/h (1 Bft)
03.07.2017 23:20 12,5 C 91 % 1021,5 hPa 0,0 mm NW 312 1,6 km/h (1 Bft)
03.07.2017 23:25 12,5 C 91 % 1021,5 hPa 0,0 mm NW 312 1,6 km/h (1 Bft)
03.07.2017 23:30 12,4 C 91 % 1021,5 hPa 0,0 mm NW 312 1,6 km/h (1 Bft)
03.07.2017 23:35 12,4 C 91 % 1021,5 hPa 0,0 mm NW 312 1,6 km/h (1 Bft)
03.07.2017 23:40 12,4 C 91 % 1021,5 hPa 0,0 mm NW 312 1,6 km/h (1 Bft)
03.07.2017 23:45 12,3 C 91 % 1021,5 hPa 0,0 mm NW 312 1,6 km/h (1 Bft)
03.07.2017 23:50 12,3 C 91 % 1021,5 hPa 0,0 mm NW 312 0,0 km/h (0 Bft)
03.07.2017 23:55 12,2 C 91 % 1021,5 hPa 0,0 mm NW 312 0,0 km/h (0 Bft)
_ Min-Zeit 23:55 16:45 18:50 - - - 06:55
Minimum _ 12,2 C 55 % 1020,7 hPa - - - 0,0 km/h (0 Bft)
_ Max-Zeit 16:50 00:05 10:40 05:20 - - 18:10
Maximum _ 22,2 C 93 % 1023,6 hPa 0,6 mm - - 17,7 km/h
W (3 Bft)
Durchschnitt _ 16,3 C 83 % 1021,9 hPa #7,6 mm W - 7,7 km/h (2 Bft)